| time (UTC) | temp C | wind direction | speed KPH | gust KPH | rain 1hr cm | rain 24hr cm | rain mn cm | humidity % | barometer mb |
| 20260505124839 | 12 | 304 | 3.2 | 3.2 | 0.00 | 0.00 | 0.00 | 80 | 1012.4 |
| 20260505124332 | 12 | 316 | 1.6 | 3.2 | 0.00 | 0.00 | 0.00 | 80 | 1012.4 |
| 20260505123318 | 12 | 304 | 1.6 | 3.2 | 0.00 | 0.00 | 0.00 | 80 | 1012.4 |
| 20260505122810 | 12 | 314 | 1.6 | 3.2 | 0.00 | 0.00 | 0.00 | 80 | 1012.1 |
| 20260505120741 | 12 | 320 | 3.2 | 3.2 | 0.00 | 0.00 | 0.00 | 81 | 1012.1 |
| 20260505120234 | 13 | 316 | 1.6 | 3.2 | 0.00 | 0.00 | 0.00 | 81 | 1012.1 |
| 20260505115727 | 13 | 318 | 1.6 | 3.2 | 0.00 | 0.00 | 0.00 | 82 | 1012.1 |
| 20260505114712 | 13 | 290 | 1.6 | 3.2 | 0.00 | 0.00 | 0.00 | 82 | 1012.1 |
| 20260505114205 | 13 | 287 | 1.6 | 3.2 | 0.00 | 0.00 | 0.00 | 81 | 1012.1 |
| 20260505113657 | 13 | 233 | 3.2 | 3.2 | 0.00 | 0.00 | 0.00 | 80 | 1012.4 |
| 20260505113150 | 13 | 226 | 3.2 | 3.2 | 0.00 | 0.00 | 0.00 | 80 | 1012.4 |
| 20260505112643 | 13 | 267 | 0.0 | 3.2 | 0.00 | 0.00 | 0.00 | 79 | 1012.1 |
| 20260505111629 | 13 | 296 | 1.6 | 3.2 | 0.00 | 0.00 | 0.00 | 79 | 1012.1 |
| 20260505111121 | 13 | 294 | 0.0 | 3.2 | 0.00 | 0.00 | 0.00 | 79 | 1012.1 |
| 20260505110106 | 13 | 281 | 0.0 | 4.8 | 0.00 | 0.00 | 0.00 | 79 | 1012.4 |
| 20260505102009 | 14 | 251 | 3.2 | 4.8 | 0.00 | 0.00 | 0.00 | 77 | 1012.4 |
| 20260505101501 | 14 | 284 | 3.2 | 4.8 | 0.00 | 0.00 | 0.00 | 76 | 1012.4 |
| 20260505100954 | 14 | 260 | 3.2 | 6.4 | 0.00 | 0.00 | 0.00 | 75 | 1012.4 |
| 20260505100447 | 14 | 284 | 4.8 | 6.4 | 0.00 | 0.00 | 0.00 | 74 | 1012.4 |
| 20260505095940 | 14 | 253 | 3.2 | 6.4 | 0.00 | 0.00 | 0.00 | 73 | 1012.4 |
| 20260505095433 | 14 | 294 | 3.2 | 6.4 | 0.00 | 0.00 | 0.00 | 72 | 1012.4 |
| 20260505094925 | 14 | 267 | 3.2 | 4.8 | 0.00 | 0.00 | 0.00 | 71 | 1012.4 |
| 20260505093911 | 14 | 260 | 4.8 | 4.8 | 0.00 | 0.00 | 0.00 | 71 | 1012.4 |
| 20260505093404 | 14 | 310 | 1.6 | 6.4 | 0.00 | 0.00 | 0.00 | 71 | 1012.4 |
| 20260505092856 | 14 | 264 | 1.6 | 6.4 | 0.00 | 0.00 | 0.00 | 71 | 1012.8 |
| 20260505092349 | 14 | 301 | 0.0 | 6.4 | 0.00 | 0.00 | 0.00 | 71 | 1012.8 |
| 20260505091842 | 14 | 320 | 1.6 | 6.4 | 0.00 | 0.00 | 0.00 | 71 | 1012.8 |
| 20260505091335 | 14 | 344 | 0.0 | 4.8 | 0.00 | 0.00 | 0.00 | 71 | 1012.8 |
| 20260505090827 | 14 | 282 | 1.6 | 6.4 | 0.00 | 0.00 | 0.00 | 71 | 1012.8 |
| 20260505090320 | 14 | 278 | 1.6 | 6.4 | 0.00 | 0.00 | 0.00 | 70 | 1013.1 |
| 20260505085812 | 14 | 306 | 4.8 | 6.4 | 0.00 | 0.00 | 0.00 | 70 | 1012.8 |
| 20260505085305 | 14 | 327 | 0.0 | 4.8 | 0.00 | 0.00 | 0.00 | 71 | 1013.1 |
| 20260505084758 | 14 | 312 | 1.6 | 4.8 | 0.00 | 0.00 | 0.00 | 72 | 1013.1 |
| 20260505084251 | 15 | 308 | 4.8 | 4.8 | 0.00 | 0.00 | 0.00 | 72 | 1013.1 |
| 20260505083744 | 15 | 303 | 3.2 | 4.8 | 0.00 | 0.00 | 0.00 | 73 | 1013.1 |
| 20260505083236 | 15 | 272 | 4.8 | 6.4 | 0.00 | 0.00 | 0.00 | 73 | 1013.1 |
| 20260505082729 | 15 | 318 | 1.6 | 6.4 | 0.00 | 0.00 | 0.00 | 74 | 1013.1 |
| 20260505081714 | 14 | 330 | 3.2 | 4.8 | 0.00 | 0.00 | 0.00 | 77 | 1013.1 |
| 20260505080153 | 14 | 321 | 1.6 | 3.2 | 0.00 | 0.00 | 0.00 | 79 | 1013.4 |
| 20260505075140 | 14 | 304 | 0.0 | 3.2 | 0.00 | 0.00 | 0.00 | 82 | 1013.4 |
| 20260505074631 | 14 | 285 | 0.0 | 1.6 | 0.00 | 0.00 | 0.00 | 84 | 1013.4 |
| 20260505074124 | 14 | 271 | 1.6 | 3.2 | 0.00 | 0.00 | 0.00 | 84 | 1013.4 |
| 20260505073617 | 14 | 251 | 1.6 | 3.2 | 0.00 | 0.00 | 0.00 | 84 | 1013.4 |
| 20260505072602 | 14 | 276 | 0.0 | 0.0 | 0.00 | 0.00 | 0.00 | 84 | 1013.4 |
| 20260505072055 | 14 | 283 | 0.0 | 0.0 | 0.00 | 0.00 | 0.00 | 85 | 1013.4 |
| 20260505071548 | 14 | 317 | 0.0 | 1.6 | 0.00 | 0.00 | 0.00 | 85 | 1013.8 |
| 20260505071040 | 14 | 317 | 0.0 | 1.6 | 0.00 | 0.00 | 0.00 | 85 | 1013.4 |
| 20260505070026 | 14 | 316 | 1.6 | 3.2 | 0.00 | 0.00 | 0.00 | 85 | 1013.4 |
| 20260505065518 | 14 | 318 | 1.6 | 3.2 | 0.00 | 0.00 | 0.00 | 86 | 1013.4 |
| 20260505065011 | 14 | 336 | 0.0 | 3.2 | 0.00 | 0.00 | 0.00 | 86 | 1013.4 |
| 20260505064504 | 14 | 346 | 0.0 | 3.2 | 0.00 | 0.00 | 0.00 | 86 | 1013.4 |
| 20260505063956 | 14 | 311 | 1.6 | 3.2 | 0.00 | 0.00 | 0.00 | 87 | 1013.4 |
| 20260505063449 | 14 | 263 | 1.6 | 3.2 | 0.00 | 0.00 | 0.00 | 87 | 1013.4 |
| 20260505062943 | 14 | 288 | 1.6 | 3.2 | 0.00 | 0.00 | 0.00 | 87 | 1013.4 |
| 20260505062435 | 14 | 275 | 0.0 | 4.8 | 0.00 | 0.00 | 0.00 | 87 | 1013.8 |
| 20260505061928 | 13 | 290 | 1.6 | 6.4 | 0.00 | 0.00 | 0.00 | 87 | 1013.4 |
| 20260505061420 | 13 | 251 | 4.8 | 4.8 | 0.00 | 0.00 | 0.00 | 87 | 1013.4 |
| 20260505060913 | 13 | 245 | 3.2 | 4.8 | 0.00 | 0.00 | 0.00 | 87 | 1013.4 |
| 20260505060405 | 14 | 251 | 3.2 | 6.4 | 0.00 | 0.00 | 0.00 | 86 | 1013.4 |
| 20260505055858 | 14 | 290 | 1.6 | 6.4 | 0.00 | 0.00 | 0.00 | 86 | 1013.8 |
| 20260505055351 | 14 | 227 | 4.8 | 4.8 | 0.00 | 0.00 | 0.00 | 86 | 1013.8 |
| 20260505054844 | 14 | 252 | 4.8 | 4.8 | 0.00 | 0.00 | 0.00 | 86 | 1013.8 |
| 20260505053830 | 14 | 265 | 1.6 | 4.8 | 0.00 | 0.00 | 0.00 | 86 | 1013.8 |
| 20260505053322 | 14 | 270 | 4.8 | 4.8 | 0.00 | 0.00 | 0.00 | 86 | 1013.8 |
| 20260505052814 | 14 | 240 | 3.2 | 6.4 | 0.00 | 0.00 | 0.00 | 85 | 1013.8 |
| 20260505052307 | 14 | 228 | 3.2 | 6.4 | 0.00 | 0.00 | 0.00 | 85 | 1013.8 |
| 20260505051800 | 14 | 293 | 3.2 | 6.4 | 0.00 | 0.00 | 0.00 | 85 | 1013.8 |
| 20260505051253 | 14 | 288 | 1.6 | 6.4 | 0.00 | 0.00 | 0.00 | 85 | 1013.8 |
| 20260505050746 | 14 | 285 | 3.2 | 6.4 | 0.00 | 0.00 | 0.00 | 85 | 1013.8 |
| 20260505050239 | 14 | 284 | 0.0 | 9.7 | 0.00 | 0.00 | 0.00 | 85 | 1013.8 |
| 20260505041633 | 14 | 231 | 6.4 | 9.7 | 0.00 | 0.00 | 0.00 | 85 | 1014.1 |
| 20260505041126 | 14 | 259 | 3.2 | 11.3 | 0.00 | 0.00 | 0.00 | 85 | 1014.1 |
| 20260505040619 | 14 | 244 | 6.4 | 11.3 | 0.00 | 0.00 | 0.00 | 84 | 1014.1 |
| 20260505040111 | 14 | 237 | 6.4 | 11.3 | 0.00 | 0.00 | 0.00 | 84 | 1014.1 |
| 20260505035604 | 14 | 281 | 6.4 | 12.9 | 0.00 | 0.00 | 0.00 | 84 | 1014.1 |
| 20260505035057 | 14 | 261 | 9.7 | 12.9 | 0.00 | 0.00 | 0.00 | 83 | 1014.1 |
| 20260505034549 | 14 | 242 | 6.4 | 14.5 | 0.00 | 0.00 | 0.00 | 82 | 1014.1 |
| 20260505034042 | 14 | 265 | 4.8 | 14.5 | 0.00 | 0.00 | 0.00 | 81 | 1013.8 |
| 20260505033535 | 14 | 259 | 11.3 | 14.5 | 0.00 | 0.00 | 0.00 | 80 | 1013.8 |
| 20260505033028 | 14 | 240 | 8.0 | 14.5 | 0.00 | 0.00 | 0.00 | 80 | 1013.8 |
| 20260505032520 | 14 | 253 | 6.4 | 12.9 | 0.00 | 0.00 | 0.00 | 80 | 1013.8 |
| 20260505032013 | 14 | 237 | 6.4 | 16.1 | 0.00 | 0.00 | 0.00 | 79 | 1013.8 |
| 20260505031506 | 14 | 222 | 12.9 | 16.1 | 0.00 | 0.00 | 0.00 | 80 | 1013.8 |
| 20260505031000 | 14 | 234 | 8.0 | 14.5 | 0.00 | 0.00 | 0.00 | 79 | 1013.4 |
| 20260505030451 | 14 | 246 | 9.7 | 14.5 | 0.00 | 0.00 | 0.00 | 79 | 1013.4 |
| 20260505025945 | 15 | 265 | 9.7 | 16.1 | 0.00 | 0.00 | 0.00 | 78 | 1013.4 |
| 20260505023915 | 15 | 231 | 8.0 | 17.7 | 0.00 | 0.00 | 0.00 | 78 | 1013.4 |
| 20260505023407 | 15 | 232 | 14.5 | 22.5 | 0.00 | 0.00 | 0.00 | 78 | 1013.4 |
| 20260505022900 | 15 | 258 | 11.3 | 22.5 | 0.00 | 0.00 | 0.00 | 78 | 1013.4 |
| 20260505022353 | 15 | 192 | 9.7 | 16.1 | 0.00 | 0.00 | 0.00 | 78 | 1013.4 |
| 20260505021846 | 15 | 247 | 11.3 | 22.5 | 0.00 | 0.00 | 0.00 | 79 | 1013.4 |
| 20260505021339 | 15 | 280 | 14.5 | 24.1 | 0.00 | 0.00 | 0.00 | 78 | 1013.4 |
| 20260505020831 | 15 | 230 | 14.5 | 24.1 | 0.00 | 0.00 | 0.00 | 78 | 1013.4 |
| 20260505020324 | 15 | 267 | 17.7 | 25.7 | 0.00 | 0.00 | 0.00 | 77 | 1013.4 |
| 20260505015817 | 15 | 237 | 17.7 | 27.4 | 0.00 | 0.00 | 0.00 | 76 | 1013.4 |
| 20260505015310 | 15 | 246 | 17.7 | 27.4 | 0.00 | 0.00 | 0.00 | 76 | 1013.4 |
| 20260505014803 | 15 | 252 | 19.3 | 27.4 | 0.00 | 0.00 | 0.00 | 73 | 1013.1 |
| 20260505014255 | 15 | 263 | 12.9 | 27.4 | 0.00 | 0.00 | 0.00 | 74 | 1013.4 |
| 20260505013240 | 15 | 231 | 19.3 | 24.1 | 0.00 | 0.00 | 0.00 | 74 | 1013.4 |
| 20260505012733 | 15 | 242 | 14.5 | 24.1 | 0.00 | 0.00 | 0.00 | 75 | 1013.4 |
| 20260505012226 | 15 | 277 | 9.7 | 22.5 | 0.00 | 0.00 | 0.00 | 75 | 1013.8 |
| 20260505011719 | 15 | 246 | 16.1 | 22.5 | 0.00 | 0.00 | 0.00 | 75 | 1013.8 |
| 20260505011211 | 15 | 289 | 8.0 | 24.1 | 0.00 | 0.00 | 0.00 | 75 | 1013.8 |
| 20260505010703 | 15 | 269 | 6.4 | 24.1 | 0.00 | 0.00 | 0.00 | 75 | 1013.8 |
| 20260505005649 | 16 | 248 | 6.4 | 35.4 | 0.00 | 0.00 | 0.00 | 75 | 1013.4 |
| 20260505005142 | 15 | 251 | 11.3 | 35.4 | 0.00 | 0.00 | 0.00 | 77 | 1013.8 |
| 20260505004635 | 15 | 234 | 12.9 | 29.0 | 0.00 | 0.00 | 0.00 | 77 | 1013.8 |
| 20260505003620 | 16 | 186 | 8.0 | 27.4 | 0.00 | 0.00 | 0.00 | 74 | 1013.8 |
| 20260505003113 | 16 | 234 | 12.9 | 30.6 | 0.00 | 0.00 | 0.00 | 74 | 1013.8 |
| 20260505002605 | 16 | 236 | 16.1 | 30.6 | 0.00 | 0.00 | 0.00 | 73 | 1013.8 |
| 20260505002058 | 16 | 224 | 6.4 | 25.7 | 0.00 | 0.00 | 0.00 | 75 | 1013.8 |
| 20260505001551 | 16 | 262 | 9.7 | 27.4 | 0.00 | 0.00 | 0.00 | 74 | 1013.8 |
| 20260505001044 | 16 | 273 | 17.7 | 27.4 | 0.00 | 0.00 | 0.00 | 74 | 1013.8 |
| 20260505000537 | 16 | 260 | 19.3 | 33.8 | 0.00 | 0.00 | 0.00 | 75 | 1013.8 |
| 20260505000030 | 15 | 267 | 20.9 | 33.8 | 0.00 | 0.00 | 0.00 | 75 | 1013.8 |
| 20260504235015 | 16 | 216 | 14.5 | 29.0 | 0.00 | 0.00 | 0.00 | 76 | 1013.4 |
| 20260504234508 | 16 | 240 | 22.5 | 35.4 | 0.00 | 0.00 | 0.00 | 75 | 1013.8 |
| 20260504233453 | 16 | 267 | 19.3 | 30.6 | 0.00 | 0.00 | 0.00 | 73 | 1013.4 |
| 20260504232945 | 16 | 226 | 17.7 | 30.6 | 0.00 | 0.00 | 0.00 | 73 | 1013.4 |
| 20260504232438 | 16 | 240 | 19.3 | 30.6 | 0.00 | 0.00 | 0.00 | 73 | 1013.4 |
| 20260504231931 | 16 | 251 | 22.5 | 27.4 | 0.00 | 0.00 | 0.00 | 74 | 1013.8 |
| 20260504231424 | 16 | 237 | 25.7 | 27.4 | 0.00 | 0.00 | 0.00 | 74 | 1013.8 |
| 20260504230916 | 16 | 243 | 17.7 | 29.0 | 0.00 | 0.00 | 0.00 | 75 | 1013.8 |
| 20260504225901 | 16 | 225 | 20.9 | 33.8 | 0.00 | 0.00 | 0.00 | 73 | 1013.8 |
| 20260504225354 | 17 | 263 | 8.0 | 33.8 | 0.00 | 0.00 | 0.00 | 72 | 1013.8 |
| 20260504224847 | 16 | 272 | 22.5 | 30.6 | 0.00 | 0.00 | 0.00 | 73 | 1013.8 |
| 20260504223325 | 17 | 263 | 20.9 | 35.4 | 0.00 | 0.00 | 0.00 | 71 | 1014.1 |
| 20260504222819 | 16 | 260 | 11.3 | 37.0 | 0.00 | 0.00 | 0.00 | 73 | 1014.1 |
| 20260504222311 | 17 | 237 | 20.9 | 37.0 | 0.00 | 0.00 | 0.00 | 71 | 1014.1 |
| 20260504221803 | 17 | 277 | 16.1 | 38.6 | 0.00 | 0.00 | 0.00 | 72 | 1013.8 |
| 20260504215735 | 16 | 215 | 12.9 | 29.0 | 0.00 | 0.00 | 0.00 | 71 | 1014.5 |
| 20260504215227 | 17 | 227 | 14.5 | 29.0 | 0.00 | 0.00 | 0.00 | 72 | 1014.5 |
| 20260504214720 | 17 | 252 | 22.5 | 29.0 | 0.00 | 0.00 | 0.00 | 68 | 1014.5 |
| 20260504214213 | 17 | 328 | 8.0 | 33.8 | 0.00 | 0.00 | 0.00 | 69 | 1014.8 |
| 20260504213706 | 17 | 232 | 11.3 | 33.8 | 0.00 | 0.00 | 0.00 | 69 | 1014.8 |
| 20260504213158 | 17 | 207 | 16.1 | 29.0 | 0.00 | 0.00 | 0.00 | 68 | 1014.8 |
| 20260504212651 | 17 | 181 | 17.7 | 27.4 | 0.00 | 0.00 | 0.00 | 70 | 1014.5 |
| 20260504212143 | 17 | 277 | 14.5 | 25.7 | 0.00 | 0.00 | 0.00 | 68 | 1014.5 |
| 20260504211636 | 17 | 216 | 9.7 | 30.6 | 0.00 | 0.00 | 0.00 | 68 | 1014.8 |
| 20260504210621 | 17 | 220 | 24.1 | 30.6 | 0.00 | 0.00 | 0.00 | 65 | 1014.8 |
| 20260504210114 | 16 | 310 | 6.4 | 30.6 | 0.00 | 0.00 | 0.00 | 67 | 1014.8 |
| 20260504205100 | 17 | 226 | 20.9 | 27.4 | 0.00 | 0.00 | 0.00 | 65 | 1014.8 |
| 20260504204553 | 17 | 250 | 12.9 | 29.0 | 0.00 | 0.00 | 0.00 | 65 | 1014.8 |
| 20260504204046 | 17 | 211 | 17.7 | 29.0 | 0.00 | 0.00 | 0.00 | 65 | 1014.8 |
| 20260504203537 | 17 | 232 | 17.7 | 30.6 | 0.00 | 0.00 | 0.00 | 63 | 1014.8 |
| 20260504203030 | 17 | 173 | 17.7 | 30.6 | 0.00 | 0.00 | 0.00 | 66 | 1014.8 |
| 20260504202523 | 17 | 211 | 20.9 | 29.0 | 0.00 | 0.00 | 0.00 | 63 | 1014.8 |
| 20260504202016 | 17 | 233 | 20.9 | 29.0 | 0.00 | 0.00 | 0.00 | 61 | 1014.8 |
| 20260504201509 | 17 | 223 | 22.5 | 29.0 | 0.00 | 0.00 | 0.00 | 62 | 1014.8 |
| 20260504201001 | 17 | 255 | 14.5 | 29.0 | 0.00 | 0.00 | 0.00 | 61 | 1014.5 |
| 20260504200454 | 17 | 259 | 14.5 | 30.6 | 0.00 | 0.00 | 0.00 | 60 | 1014.8 |
| 20260504195946 | 17 | 220 | 25.7 | 30.6 | 0.00 | 0.00 | 0.00 | 58 | 1014.8 |
| 20260504195440 | 17 | 210 | 9.7 | 25.7 | 0.00 | 0.00 | 0.00 | 59 | 1014.5 |
| 20260504194932 | 17 | 218 | 9.7 | 25.7 | 0.00 | 0.00 | 0.00 | 62 | 1014.8 |
| 20260504194424 | 17 | 208 | 16.1 | 27.4 | 0.00 | 0.00 | 0.00 | 62 | 1014.8 |
| 20260504193917 | 17 | 273 | 17.7 | 29.0 | 0.00 | 0.00 | 0.00 | 59 | 1014.8 |
| 20260504193410 | 17 | 175 | 16.1 | 29.0 | 0.00 | 0.00 | 0.00 | 61 | 1014.8 |
| 20260504192903 | 17 | 299 | 11.3 | 30.6 | 0.00 | 0.00 | 0.00 | 62 | 1014.8 |
| 20260504192356 | 17 | 261 | 17.7 | 30.6 | 0.00 | 0.00 | 0.00 | 60 | 1014.8 |
| 20260504191849 | 17 | 248 | 19.3 | 25.7 | 0.00 | 0.00 | 0.00 | 64 | 1014.8 |
| 20260504191341 | 17 | 257 | 11.3 | 29.0 | 0.00 | 0.00 | 0.00 | 64 | 1014.5 |
| 20260504190835 | 16 | 231 | 14.5 | 29.0 | 0.00 | 0.00 | 0.00 | 62 | 1014.8 |
| 20260504190326 | 17 | 235 | 16.1 | 27.4 | 0.00 | 0.00 | 0.00 | 61 | 1014.8 |
| 20260504185819 | 17 | 264 | 14.5 | 25.7 | 0.00 | 0.00 | 0.00 | 60 | 1014.8 |
| 20260504185312 | 17 | 258 | 19.3 | 27.4 | 0.00 | 0.00 | 0.00 | 60 | 1015.1 |
| 20260504184805 | 16 | 238 | 19.3 | 30.6 | 0.00 | 0.00 | 0.00 | 62 | 1014.8 |
| 20260504184257 | 16 | 313 | 11.3 | 30.6 | 0.00 | 0.00 | 0.00 | 65 | 1014.8 |
| 20260504183751 | 16 | 236 | 16.1 | 29.0 | 0.00 | 0.00 | 0.00 | 64 | 1014.8 |
| 20260504183243 | 16 | 238 | 19.3 | 33.8 | 0.00 | 0.00 | 0.00 | 63 | 1015.1 |
| 20260504182736 | 16 | 226 | 25.7 | 29.0 | 0.00 | 0.00 | 0.00 | 64 | 1014.8 |
| 20260504181721 | 16 | 243 | 9.7 | 29.0 | 0.00 | 0.00 | 0.00 | 66 | 1014.8 |
| 20260504180706 | 16 | 228 | 19.3 | 30.6 | 0.00 | 0.00 | 0.00 | 66 | 1015.1 |
| 20260504180159 | 16 | 233 | 24.1 | 35.4 | 0.00 | 0.00 | 0.00 | 66 | 1015.1 |
| 20260504175145 | 16 | 226 | 9.7 | 29.0 | 0.00 | 0.00 | 0.00 | 66 | 1014.8 |
| 20260504174638 | 16 | 206 | 20.9 | 29.0 | 0.00 | 0.00 | 0.00 | 66 | 1014.8 |
| 20260504173623 | 16 | 222 | 19.3 | 30.6 | 0.00 | 0.00 | 0.00 | 64 | 1014.8 |
| 20260504173115 | 16 | 226 | 14.5 | 25.7 | 0.00 | 0.00 | 0.00 | 66 | 1014.8 |
| 20260504172608 | 16 | 273 | 12.9 | 25.7 | 0.00 | 0.00 | 0.00 | 68 | 1014.8 |
| 20260504172101 | 16 | 229 | 14.5 | 24.1 | 0.00 | 0.00 | 0.00 | 66 | 1014.8 |
| 20260504171553 | 16 | 262 | 16.1 | 20.9 | 0.00 | 0.00 | 0.00 | 68 | 1014.5 |
| 20260504171046 | 16 | 208 | 9.7 | 24.1 | 0.00 | 0.00 | 0.00 | 70 | 1014.5 |
| 20260504160412 | 17 | 259 | 1.6 | 6.4 | 0.00 | 0.00 | 0.00 | 63 | 1014.1 |
| 20260504150752 | 16 | 47 | 3.2 | 4.8 | 0.00 | 0.00 | 0.00 | 70 | 1013.8 |
| 20260504150245 | 16 | 350 | 1.6 | 4.8 | 0.00 | 0.00 | 0.00 | 72 | 1014.1 |
| 20260504141132 | 13 | 248 | 0.0 | 1.6 | 0.00 | 0.00 | 0.00 | 80 | 1013.8 |
| 20260504140625 | 13 | 253 | 1.6 | 1.6 | 0.00 | 0.00 | 0.00 | 80 | 1013.8 |
| 20260504140118 | 13 | 263 | 0.0 | 1.6 | 0.00 | 0.00 | 0.00 | 80 | 1013.8 |